Time,TemperatureF,DewpointF,PressureIn,WindDirection,WindDirectionDegrees,WindSpeedMPH,WindSpeedGustMPH,Humidity,HourlyPrecipIn,Conditions,Clouds,dailyrainin,SolarRadiationWatts/m^2,SoftwareType,DateUTC
2013-08-08 00:02:00,68.3,66.0,29.91,SW,220,3.0,12.0,91,0.00,,,0.00,0,weatherlink.com 1.10,2013-08-08 04:02:00,
2013-08-08 00:17:00,68.2,66.0,29.91,South,175,4.0,16.0,91,0.00,,,0.00,0,weatherlink.com 1.10,2013-08-08 04:17:00,
2013-08-08 00:32:00,68.2,66.0,29.91,SW,221,5.0,12.0,91,0.00,,,0.00,0,weatherlink.com 1.10,2013-08-08 04:32:00,
2013-08-08 00:47:00,68.1,65.0,29.91,WSW,252,7.0,13.0,91,0.00,,,0.00,0,weatherlink.com 1.10,2013-08-08 04:47:00,
2013-08-08 01:02:00,68.2,66.0,29.91,WSW,238,3.0,11.0,91,0.00,,,0.00,0,weatherlink.com 1.10,2013-08-08 05:02:00,
2013-08-08 01:17:00,68.2,66.0,29.92,SW,222,0.0,8.0,91,0.00,,,0.00,0,weatherlink.com 1.10,2013-08-08 05:17:00,
2013-08-08 01:32:00,68.3,66.0,29.91,South,184,0.0,11.0,91,0.00,,,0.00,0,weatherlink.com 1.10,2013-08-08 05:32:00,
2013-08-08 01:47:00,68.4,66.0,29.91,NW,324,0.0,12.0,91,0.00,,,0.00,0,weatherlink.com 1.10,2013-08-08 05:47:00,
2013-08-08 02:02:00,68.4,66.0,29.91,WSW,252,3.0,14.0,91,0.00,,,0.00,0,weatherlink.com 1.10,2013-08-08 06:02:00,
2013-08-08 02:17:00,68.4,66.0,29.91,WSW,249,8.0,11.0,91,0.00,,,0.00,0,weatherlink.com 1.10,2013-08-08 06:17:00,
2013-08-08 02:32:00,68.4,66.0,29.91,SW,223,3.0,11.0,91,0.00,,,0.00,0,weatherlink.com 1.10,2013-08-08 06:32:00,
2013-08-08 02:47:00,68.2,66.0,29.91,WSW,246,10.0,13.0,92,0.00,,,0.00,0,weatherlink.com 1.10,2013-08-08 06:47:00,
2013-08-08 03:02:00,68.1,66.0,29.90,SW,221,3.0,11.0,92,0.00,,,0.00,0,weatherlink.com 1.10,2013-08-08 07:02:00,
2013-08-08 03:17:00,68.0,66.0,29.91,SW,236,7.0,13.0,92,0.00,,,0.00,0,weatherlink.com 1.10,2013-08-08 07:17:00,
2013-08-08 03:32:00,67.9,66.0,29.91,SW,214,2.0,8.0,92,0.00,,,0.00,0,weatherlink.com 1.10,2013-08-08 07:32:00,
2013-08-08 03:47:00,67.7,65.0,29.90,WSW,246,5.0,8.0,92,0.00,,,0.00,0,weatherlink.com 1.10,2013-08-08 07:47:00,
2013-08-08 04:02:00,67.5,66.0,29.91,WSW,246,4.0,9.0,93,0.00,,,0.00,0,weatherlink.com 1.10,2013-08-08 08:02:00,
2013-08-08 04:17:00,67.3,65.0,29.91,WSW,238,0.0,7.0,93,0.00,,,0.00,0,weatherlink.com 1.10,2013-08-08 08:17:00,
2013-08-08 04:32:00,67.1,65.0,29.90,South,178,1.0,5.0,93,0.00,,,0.00,0,weatherlink.com 1.10,2013-08-08 08:32:00,
2013-08-08 04:48:00,67.0,65.0,29.90,South,175,2.0,7.0,94,0.00,,,0.00,0,weatherlink.com 1.10,2013-08-08 08:48:00,
2013-08-08 05:02:00,67.0,65.0,29.90,WSW,240,3.0,7.0,93,0.00,,,0.00,0,weatherlink.com 1.10,2013-08-08 09:02:00,
2013-08-08 05:17:00,67.2,65.0,29.91,WSW,253,6.0,10.0,93,0.00,,,0.00,0,weatherlink.com 1.10,2013-08-08 09:17:00,
2013-08-08 05:32:00,67.3,65.0,29.91,WSW,238,5.0,9.0,93,0.00,,,0.00,0,weatherlink.com 1.10,2013-08-08 09:32:00,
2013-08-08 05:47:00,67.3,65.0,29.91,SSE,155,0.0,8.0,93,0.00,,,0.00,0,weatherlink.com 1.10,2013-08-08 09:47:00,
2013-08-08 06:02:00,67.1,65.0,29.92,SW,225,6.0,6.0,93,0.00,,,0.00,7,weatherlink.com 1.10,2013-08-08 10:02:00,
2013-08-08 06:17:00,67.0,65.0,29.92,SSW,202,5.0,5.0,93,0.00,,,0.00,14,weatherlink.com 1.10,2013-08-08 10:17:00,
2013-08-08 06:32:00,67.0,65.0,29.92,SSE,150,2.0,6.0,93,0.00,,,0.00,21,weatherlink.com 1.10,2013-08-08 10:32:00,
2013-08-08 06:47:00,67.1,65.0,29.93,WSW,238,12.0,13.0,93,0.00,,,0.00,21,weatherlink.com 1.10,2013-08-08 10:47:00,
2013-08-08 07:02:00,67.3,65.0,29.93,SW,229,0.0,9.0,93,0.00,,,0.00,39,weatherlink.com 1.10,2013-08-08 11:02:00,
2013-08-08 07:18:00,67.6,65.0,29.94,WSW,243,5.0,10.0,92,0.00,,,0.00,35,weatherlink.com 1.10,2013-08-08 11:18:00,
2013-08-08 07:33:00,67.6,65.0,29.93,SSW,208,0.0,5.0,92,0.00,,,0.00,47,weatherlink.com 1.10,2013-08-08 11:33:00,
2013-08-08 07:48:00,67.5,65.0,29.94,SSE,161,1.0,4.0,92,0.00,,,0.00,77,weatherlink.com 1.10,2013-08-08 11:48:00,
2013-08-08 08:03:00,67.6,65.0,29.94,WSW,241,5.0,5.0,92,0.00,,,0.00,90,weatherlink.com 1.10,2013-08-08 12:03:00,
2013-08-08 08:18:00,67.9,66.0,29.95,SSW,194,0.0,5.0,92,0.00,,,0.00,109,weatherlink.com 1.10,2013-08-08 12:18:00,
2013-08-08 08:33:00,68.3,66.0,29.95,South,174,2.0,5.0,91,0.00,,,0.00,132,weatherlink.com 1.10,2013-08-08 12:33:00,
2013-08-08 08:48:00,68.9,66.0,29.95,South,188,0.0,4.0,91,0.00,,,0.00,174,weatherlink.com 1.10,2013-08-08 12:48:00,
2013-08-08 09:03:00,69.4,67.0,29.95,WSW,238,0.0,6.0,91,0.00,,,0.00,192,weatherlink.com 1.10,2013-08-08 13:03:00,
2013-08-08 09:18:00,70.0,67.0,29.95,South,169,0.0,5.0,89,0.00,,,0.00,186,weatherlink.com 1.10,2013-08-08 13:18:00,
2013-08-08 09:33:00,70.2,67.0,29.95,South,176,1.0,8.0,88,0.00,,,0.00,264,weatherlink.com 1.10,2013-08-08 13:33:00,
2013-08-08 09:48:00,71.0,68.0,29.93,SSE,155,1.0,7.0,89,0.00,,,0.00,295,weatherlink.com 1.10,2013-08-08 13:48:00,
2013-08-08 10:03:00,72.7,69.0,29.93,SE,130,6.0,8.0,88,0.00,,,0.00,638,weatherlink.com 1.10,2013-08-08 14:03:00,
2013-08-08 10:18:00,73.8,68.0,29.94,SE,138,2.0,7.0,83,0.00,,,0.00,652,weatherlink.com 1.10,2013-08-08 14:18:00,
2013-08-08 10:33:00,74.9,69.0,29.93,East,90,5.0,8.0,83,0.00,,,0.00,708,weatherlink.com 1.10,2013-08-08 14:33:00,
2013-08-08 10:48:00,76.3,70.0,29.92,East,99,3.0,7.0,81,0.00,,,0.00,765,weatherlink.com 1.10,2013-08-08 14:48:00,
2013-08-08 11:03:00,77.0,70.0,29.92,ESE,119,5.0,8.0,80,0.00,,,0.00,687,weatherlink.com 1.10,2013-08-08 15:03:00,
2013-08-08 11:18:00,78.0,69.0,29.93,ENE,73,4.0,8.0,74,0.00,,,0.00,882,weatherlink.com 1.10,2013-08-08 15:18:00,
2013-08-08 11:33:00,76.6,69.0,29.92,East,90,0.0,5.0,77,0.00,,,0.00,306,weatherlink.com 1.10,2013-08-08 15:33:00,
2013-08-08 11:48:00,77.1,71.0,29.93,SSE,155,3.0,6.0,80,0.00,,,0.00,1005,weatherlink.com 1.10,2013-08-08 15:48:00,
2013-08-08 12:03:00,77.5,70.0,29.92,East,98,3.0,5.0,77,0.00,,,0.00,290,weatherlink.com 1.10,2013-08-08 16:03:00,
2013-08-08 12:18:00,77.1,71.0,29.92,East,93,2.0,6.0,80,0.00,,,0.00,281,weatherlink.com 1.10,2013-08-08 16:18:00,
2013-08-08 12:33:00,78.0,71.0,29.92,East,100,1.0,9.0,80,0.00,,,0.00,373,weatherlink.com 1.10,2013-08-08 16:33:00,
2013-08-08 12:48:00,79.1,70.0,29.91,SE,137,7.0,9.0,73,0.00,,,0.00,320,weatherlink.com 1.10,2013-08-08 16:48:00,
2013-08-08 13:04:00,79.2,71.0,29.92,SE,126,5.0,11.0,75,0.00,,,0.00,410,weatherlink.com 1.10,2013-08-08 17:04:00,
2013-08-08 13:19:00,78.8,70.0,29.92,SE,130,1.0,7.0,75,0.00,,,0.00,415,weatherlink.com 1.10,2013-08-08 17:19:00,
2013-08-08 13:34:00,79.0,71.0,29.93,SSE,166,2.0,10.0,76,0.00,,,0.00,394,weatherlink.com 1.10,2013-08-08 17:34:00,
2013-08-08 13:49:00,79.4,71.0,29.92,SE,134,0.0,8.0,75,0.00,,,0.00,951,weatherlink.com 1.10,2013-08-08 17:49:00,
2013-08-08 14:04:00,79.4,70.0,29.92,SSE,157,9.0,12.0,74,0.00,,,0.00,900,weatherlink.com 1.10,2013-08-08 18:04:00,
2013-08-08 14:19:00,80.3,71.0,29.92,SE,136,4.0,11.0,72,0.00,,,0.00,812,weatherlink.com 1.10,2013-08-08 18:19:00,
2013-08-08 14:34:00,80.5,72.0,29.91,SE,138,6.0,10.0,74,0.00,,,0.00,851,weatherlink.com 1.10,2013-08-08 18:34:00,
2013-08-08 14:49:00,79.8,70.0,29.91,ESE,122,3.0,12.0,72,0.00,,,0.00,828,weatherlink.com 1.10,2013-08-08 18:49:00,
2013-08-08 15:04:00,80.4,72.0,29.91,SW,215,2.0,9.0,75,0.00,,,0.00,445,weatherlink.com 1.10,2013-08-08 19:04:00,
2013-08-08 15:19:00,80.8,73.0,29.90,SW,231,6.0,13.0,76,0.00,,,0.00,956,weatherlink.com 1.10,2013-08-08 19:19:00,
2013-08-08 15:34:00,80.9,71.0,29.91,SSE,153,0.0,10.0,71,0.00,,,0.00,661,weatherlink.com 1.10,2013-08-08 19:34:00,
2013-08-08 15:49:00,81.0,70.0,29.90,SSW,211,3.0,12.0,70,0.00,,,0.00,536,weatherlink.com 1.10,2013-08-08 19:49:00,
2013-08-08 16:04:00,80.7,70.0,29.90,SSW,213,7.0,9.0,69,0.00,,,0.00,359,weatherlink.com 1.10,2013-08-08 20:04:00,
2013-08-08 16:19:00,80.6,71.0,29.89,SSE,155,1.0,7.0,72,0.00,,,0.00,594,weatherlink.com 1.10,2013-08-08 20:19:00,
2013-08-08 16:34:00,81.3,71.0,29.89,SW,234,1.0,7.0,72,0.00,,,0.00,541,weatherlink.com 1.10,2013-08-08 20:34:00,
2013-08-08 16:49:00,82.4,73.0,29.88,SSE,154,1.0,8.0,72,0.00,,,0.00,636,weatherlink.com 1.10,2013-08-08 20:49:00,
2013-08-08 17:04:00,82.3,71.0,29.88,South,172,0.0,7.0,68,0.00,,,0.00,190,weatherlink.com 1.10,2013-08-08 21:04:00,
2013-08-08 17:19:00,80.2,70.0,29.88,SSW,206,2.0,4.0,72,0.00,,,0.00,192,weatherlink.com 1.10,2013-08-08 21:19:00,
2013-08-08 17:34:00,79.5,72.0,29.89,SSE,166,0.0,4.0,77,0.00,,,0.00,121,weatherlink.com 1.10,2013-08-08 21:34:00,
2013-08-08 17:49:00,78.5,71.0,29.89,SSW,206,3.0,3.0,78,0.00,,,0.00,77,weatherlink.com 1.10,2013-08-08 21:49:00,
2013-08-08 18:19:00,77.4,71.0,29.89,SSW,202,2.0,3.0,80,0.00,,,0.00,51,weatherlink.com 1.10,2013-08-08 22:19:00,
2013-08-08 18:49:00,76.6,71.0,29.88,SSE,153,3.0,3.0,82,0.00,,,0.00,32,weatherlink.com 1.10,2013-08-08 22:49:00,
2013-08-08 19:04:00,76.2,71.0,29.87,South,169,3.0,4.0,84,0.00,,,0.00,26,weatherlink.com 1.10,2013-08-08 23:04:00,
2013-08-08 19:19:00,75.8,71.0,29.87,South,180,2.0,6.0,85,0.00,,,0.00,44,weatherlink.com 1.10,2013-08-08 23:19:00,
2013-08-08 19:34:00,75.8,71.0,29.88,SW,217,0.0,5.0,86,0.00,,,0.00,23,weatherlink.com 1.10,2013-08-08 23:34:00,
2013-08-08 19:49:00,75.4,71.0,29.88,South,171,0.0,5.0,86,0.00,,,0.00,9,weatherlink.com 1.10,2013-08-08 23:49:00,
2013-08-08 20:19:00,74.9,71.0,29.89,South,186,0.0,4.0,87,0.00,,,0.00,0,weatherlink.com 1.10,2013-08-09 00:19:00,
2013-08-08 20:34:00,74.7,71.0,29.88,South,180,2.0,3.0,87,0.00,,,0.00,0,weatherlink.com 1.10,2013-08-09 00:34:00,
2013-08-08 20:49:00,74.3,71.0,29.88,SSW,198,0.0,6.0,88,0.00,,,0.00,0,weatherlink.com 1.10,2013-08-09 00:49:00,
2013-08-08 21:04:00,74.1,70.0,29.89,SSW,209,5.0,8.0,88,0.00,,,0.00,0,weatherlink.com 1.10,2013-08-09 01:04:00,
2013-08-08 21:19:00,74.2,71.0,29.89,South,189,0.0,6.0,88,0.00,,,0.00,0,weatherlink.com 1.10,2013-08-09 01:19:00,
2013-08-08 21:34:00,74.0,70.0,29.89,SW,225,1.0,7.0,88,0.00,,,0.00,0,weatherlink.com 1.10,2013-08-09 01:34:00,
2013-08-08 21:49:00,73.7,70.0,29.89,WSW,255,5.0,6.0,89,0.00,,,0.00,0,weatherlink.com 1.10,2013-08-09 01:49:00,
2013-08-08 22:04:00,73.4,70.0,29.89,SW,232,3.0,7.0,89,0.00,,,0.00,0,weatherlink.com 1.10,2013-08-09 02:04:00,
2013-08-08 22:19:00,73.5,70.0,29.89,South,185,2.0,4.0,89,0.00,,,0.00,0,weatherlink.com 1.10,2013-08-09 02:19:00,
2013-08-08 22:34:00,73.4,70.0,29.88,South,189,0.0,5.0,89,0.00,,,0.00,0,weatherlink.com 1.10,2013-08-09 02:34:00,
2013-08-08 22:49:00,73.0,70.0,29.88,WSW,244,3.0,4.0,90,0.00,,,0.00,0,weatherlink.com 1.10,2013-08-09 02:49:00,
2013-08-08 23:04:00,73.0,70.0,29.88,WSW,240,3.0,4.0,90,0.00,,,0.00,0,weatherlink.com 1.10,2013-08-09 03:04:00,
2013-08-08 23:34:00,72.6,69.0,29.88,SSW,200,4.0,10.0,88,0.00,,,0.00,0,weatherlink.com 1.10,2013-08-09 03:34:00,
2013-08-08 23:49:00,72.5,69.0,29.87,SW,216,2.0,9.0,88,0.00,,,0.00,0,weatherlink.com 1.10,2013-08-09 03:49:00,